Millington, TN

10:46 AM CDT on April 27, 2017 (GMT -0500)
Millington Municipal

Weather History for KNQA - April, 2013

Change the Weather History Date:

Wednesday, April 24, 2013

  Actual Average Record
Temperature  
Mean Temperature 54 °F -  
Max Temperature 66 °F 72 °F 87 °F (2006)
Min Temperature 41 °F 55 °F 41 °F (2005)
Degree Days  
Heating Degree Days 11    
Growing Degree Days 4 (Base 50)    
Moisture  
Dew Point 44 °F    
Average Humidity 85    
Maximum Humidity 100    
Minimum Humidity 58    
Precipitation  
Precipitation 0.00 in - - ()
Sea Level Pressure  
Sea Level Pressure 30.12 in    
Wind  
Wind Speed 10 mph (NW)    
Max Wind Speed 17 mph    
Max Gust Speed 25 mph    
Visibility 9 miles    
Events Rain    
Averages and records for this station are not official NWS values.
T = Trace of Precipitation, MM = Missing Value Source: NWS Daily Summary

Daily Weather History Graph

Daily Weather History Graph

Search for Another Location

Airport or City:

Trip Planner

Search our weather history database for the weather conditions in past years. The results will help you decide how hot, cold, wet, or windy it might be!

Date:

Astronomy

Apr. 24, 2013 Rise Set
Actual Time 6:15 AM CDT 7:40 PM CDT
Civil Twilight 5:48 AM CDT 8:06 PM CDT
Nautical Twilight 5:16 AM CDT 8:38 PM CDT
Astronomical Twilight 4:43 AM CDT 9:12 PM CDT
Moon 6:44 PM CDT (4/24) 5:16 AM CDT (4/24)
Length of Visible Light 14h 17m
Length of Day
13h 24m
Waxing Gibbous, 98% of the Moon is Illuminated
Apr 24
Waxing Gibbous
Apr 25
Full
May 2
Last Quarter
May 9
New
May 17
First Quarter

Hourly Weather History & Observations

Time (CDT) Temp. Windchill Dew Point Humidity Pressure Visibility Wind Dir Wind Speed Gust Speed Precip Events Conditions
12:55 AM 66.2 °F - 62.6 °F 88% 29.91 in 10.0 mi SSE 6.9 mph - N/A   Overcast
1:55 AM 60.8 °F - 57.2 °F 88% 29.92 in 10.0 mi NW 13.8 mph - N/A   Overcast
2:55 AM 53.6 °F - 51.8 °F 94% 29.93 in 10.0 mi NW 16.1 mph - N/A   Overcast
3:15 AM 51.8 °F - 48.2 °F 88% 29.94 in 10.0 mi NW 17.3 mph - N/A   Overcast
3:35 AM 50.0 °F - 46.4 °F 87% 29.94 in 10.0 mi NW 13.8 mph - N/A   Overcast
3:55 AM 48.2 °F - 46.4 °F 93% 29.96 in 5.0 mi NW 15.0 mph - N/A   Overcast
4:15 AM 46.4 °F 41.1 °F 46.4 °F 100% 29.98 in 2.5 mi WNW 11.5 mph - N/A   Overcast
4:35 AM 46.4 °F 41.9 °F 46.4 °F 100% 29.99 in 3.0 mi NW 9.2 mph - N/A   Overcast
4:55 AM 46.4 °F 41.5 °F 44.6 °F 93% 30.00 in 4.0 mi WNW 10.4 mph - N/A   Overcast
5:15 AM 46.4 °F 41.1 °F 44.6 °F 93% 30.00 in 10.0 mi NW 11.5 mph - N/A   Overcast
5:35 AM 44.6 °F 37.8 °F 44.6 °F 100% 30.02 in 5.0 mi WNW 15.0 mph - N/A Rain Light Rain
5:55 AM 44.6 °F 38.4 °F 44.6 °F 100% 30.05 in 4.0 mi WNW 12.7 mph - N/A Rain Light Rain
6:55 AM 44.6 °F 39.2 °F 44.6 °F 100% 30.05 in 9.0 mi NW 10.4 mph - N/A Rain Light Rain
7:55 AM 42.8 °F 35.8 °F 42.8 °F 100% 30.10 in 10.0 mi NW 13.8 mph - N/A Rain Light Rain
8:55 AM 44.6 °F 38.8 °F 41.0 °F 87% 30.15 in 10.0 mi NNW 11.5 mph 25.3 mph N/A   Overcast
9:55 AM 44.6 °F 39.2 °F 41.0 °F 87% 30.18 in 10.0 mi NW 10.4 mph - N/A   Overcast
10:55 AM 46.4 °F 41.1 °F 41.0 °F 81% 30.22 in 10.0 mi NNW 11.5 mph - N/A   Overcast
11:55 AM 46.4 °F 41.5 °F 41.0 °F 81% 30.23 in 10.0 mi NNW 10.4 mph - N/A   Overcast
12:55 PM 48.2 °F - 41.0 °F 76% 30.23 in 10.0 mi Variable 6.9 mph - N/A   Overcast
1:55 PM 48.2 °F - 39.2 °F 71% 30.24 in 10.0 mi NNE 9.2 mph - N/A   Overcast
2:55 PM 53.6 °F - 42.8 °F 67% 30.24 in 10.0 mi NNW 10.4 mph - N/A   Mostly Cloudy
3:55 PM 55.4 °F - 42.8 °F 63% 30.24 in 10.0 mi North 10.4 mph - N/A   Mostly Cloudy
4:55 PM 55.4 °F - 42.8 °F 63% 30.23 in 10.0 mi North 6.9 mph - N/A   Scattered Clouds
5:55 PM 55.4 °F - 41.0 °F 58% 30.23 in 10.0 mi Variable 6.9 mph - N/A   Scattered Clouds
6:55 PM 51.8 °F - 39.2 °F 62% 30.23 in 10.0 mi North 5.8 mph - N/A   Partly Cloudy
7:55 PM 48.2 °F - 39.2 °F 71% 30.25 in 10.0 mi Calm Calm - N/A   Partly Cloudy
8:55 PM 44.6 °F - 41.0 °F 87% 30.28 in 10.0 mi Calm Calm - N/A   Clear
10:55 PM 42.8 °F - 41.0 °F 93% 30.30 in 10.0 mi Calm Calm - N/A   Clear
11:55 PM 41.0 °F - 39.2 °F 93% 30.30 in 10.0 mi Calm Calm - N/A   Clear